Weather reports worldwide

Advertisment
Ciudad Real, Spain (8348): temperature & dewpoint: 05.12.2019 09:00:00 - 11.12.2019 09:00:00 (CET)Ciudad Real, Spain (8348): wind speed: 05.12.2019 09:00:00 - 11.12.2019 09:00:00 (CET)Ciudad Real, Spain (8348): wind direction: 05.12.2019 09:00:00 - 11.12.2019 09:00:00 (CET)Ciudad Real, Spain (8348): reduced air pressure: 05.12.2019 09:00:00 - 11.12.2019 09:00:00 (CET)Ciudad Real, Spain (8348): visibility: 05.12.2019 09:00:00 - 11.12.2019 09:00:00 (CET)Ciudad Real, Spain (8348): precipitation: 05.12.2019 09:00:00 - 11.12.2019 09:00:00 (CET)
Date & Time tt [°C] td [°C] ff [km/h] ff [kn] dd ppp [hPa] vv [km] rr [mm]
11.12.2019 09:00:00 4,5 4,2 8 4 WSW 1026,3 19 0,0
11.12.2019 08:00:00 2,4 2,4 5 3 W 1026,7 18 0,0
11.12.2019 07:00:00 1,3 1,2 4 2 SW 1026,8 7 -
11.12.2019 06:00:00 1,4 1,3 2 1 SSW 1026,8 - 0,0
11.12.2019 05:00:00 1,4 1,1 5 3 WSW 1027,2 6 0,0
11.12.2019 04:00:00 1,5 1,2 0 0 N 1027,7 - -
11.12.2019 03:00:00 1,7 1,3 2 1 SSW 1027,9 4,9 0,0
11.12.2019 02:00:00 2,0 1,6 4 2 SW 1028,0 - 0,0
11.12.2019 01:00:00 2,4 1,8 2 1 SSE 1028,6 4,9 -
11.12.2019 00:00:00 3,0 2,4 2 1 ESE 1028,9 4,5 0,0
10.12.2019 23:00:00 3,6 2,9 4 2 SE 1028,7 4,6 0,0
10.12.2019 22:00:00 4,3 3,3 2 1 NW 1028,6 - -
10.12.2019 21:00:00 5,2 4,0 2 1 NE 1028,4 6 0,0
10.12.2019 20:00:00 6,0 4,6 2 1 SSE 1028,3 7 0,0
10.12.2019 19:00:00 7,2 5,3 2 1 S 1028,1 10 -
10.12.2019 18:00:00 8,3 5,4 4 2 NW 1028,0 13 0,0
10.12.2019 17:00:00 8,9 5,5 2 1 N 1027,8 16 0,0
10.12.2019 16:00:00 8,9 5,1 4 2 NNW 1028,5 15 -
10.12.2019 15:00:00 8,9 5,5 5 3 E 1029,0 15 0,0
10.12.2019 14:00:00 7,7 5,2 4 2 E 1030,2 12 0,0
10.12.2019 13:00:00 6,7 4,5 8 4 E 1031,1 11 -
10.12.2019 12:00:00 6,0 4,5 4 2 E 1032,0 9 0,0
10.12.2019 11:00:00 5,0 3,8 5 3 E 1032,2 7 0,0
10.12.2019 10:00:00 4,8 4,2 8 4 ESE 1031,8 6 -
10.12.2019 09:00:00 4,5 4,1 4 2 E 1032,3 4,6 0,0
10.12.2019 08:00:00 5,0 4,3 5 3 ENE 1032,1 - 0,0
10.12.2019 07:00:00 5,5 4,8 5 3 E 1032,2 7 -
10.12.2019 06:00:00 5,8 5,2 5 3 E 1032,0 6 0,0
10.12.2019 05:00:00 5,9 5,8 9 5 E 1032,2 2,4 0,0
10.12.2019 04:00:00 6,0 5,9 8 4 ENE 1032,3 0,5 -
10.12.2019 03:00:00 6,3 6,0 4 2 ENE 1032,2 6 0,0
10.12.2019 02:00:00 6,0 5,9 5 3 E 1032,4 12 0,0
10.12.2019 01:00:00 5,0 4,6 4 2 E 1033,0 - -
10.12.2019 00:00:00 5,4 4,7 2 1 NE 1033,1 7 0,0
09.12.2019 23:00:00 6,6 6,0 2 1 SW 1032,5 13 0,0
09.12.2019 22:00:00 7,2 6,5 4 2 W 1032,3 18 -
09.12.2019 21:00:00 7,7 6,8 5 3 WNW 1031,7 17 0,0
09.12.2019 20:00:00 8,2 7,3 8 4 WNW 1031,0 18 0,0
09.12.2019 19:00:00 8,8 7,7 8 4 WNW 1030,2 9 -
09.12.2019 18:00:00 9,5 7,8 4 2 NW 1030,0 20 0,0
09.12.2019 17:00:00 10,8 8,4 8 4 WNW 1029,6 20 0,0
09.12.2019 16:00:00 12,3 8,9 13 7 NW 1029,1 20 -
09.12.2019 15:00:00 12,8 9,1 8 4 NW 1029,0 20 0,0
09.12.2019 14:00:00 12,4 7,9 5 3 WNW 1029,6 20 0,0
09.12.2019 13:00:00 12,3 7,8 5 3 W 1030,6 20 -
09.12.2019 12:00:00 10,4 7,5 5 3 NW 1031,7 20 0,0
09.12.2019 11:00:00 9,6 7,4 5 3 NW 1031,8 20 0,0
09.12.2019 10:00:00 9,0 7,9 2 1 N 1031,5 19 -
09.12.2019 09:00:00 8,5 8,1 4 2 S 1030,5 18 0,0
09.12.2019 08:00:00 8,6 8,2 2 1 N 1030,2 - 0,0
09.12.2019 07:00:00 8,6 8,5 2 1 NNW 1029,8 10 -
09.12.2019 06:00:00 8,5 8,4 4 2 SSW 1029,3 1,3 0,0
09.12.2019 05:00:00 8,7 8,4 2 1 NNE 1029,3 1,5 0,0
09.12.2019 04:00:00 8,9 8,4 5 3 WNW 1029,1 6 -
09.12.2019 03:00:00 9,0 8,4 5 3 WNW 1028,5 7 0,0
09.12.2019 02:00:00 9,0 8,2 8 4 WSW 1028,1 13 0,0
09.12.2019 01:00:00 8,9 8,0 5 3 W 1028,8 17 -
09.12.2019 00:00:00 8,8 7,6 5 3 W 1028,3 17 0,0
08.12.2019 23:00:00 9,0 7,8 5 3 WSW 1027,9 20 0,0
08.12.2019 22:00:00 9,1 8,0 5 3 W 1027,8 19 -
08.12.2019 21:00:00 9,4 8,2 5 3 W 1027,3 18 0,0
08.12.2019 20:00:00 9,8 8,4 8 4 WNW 1027,0 16 0,2
08.12.2019 19:00:00 10,0 8,6 5 3 SW 1026,5 18 -
08.12.2019 18:00:00 10,3 8,6 5 3 W 1026,5 20 0,0
08.12.2019 17:00:00 10,7 8,6 8 4 WNW 1026,3 20 0,0
08.12.2019 16:00:00 10,7 8,8 5 3 WNW 1026,1 20 -
08.12.2019 15:00:00 10,2 8,5 5 3 W 1026,1 20 0,0
08.12.2019 14:00:00 9,8 7,7 5 3 WNW 1026,6 19 0,0
08.12.2019 13:00:00 7,3 6,6 4 2 WNW 1028,0 13 -
08.12.2019 12:00:00 5,8 5,4 4 2 NW 1029,3 - 0,0
08.12.2019 11:00:00 4,9 4,8 4 2 W 1029,8 1,5 0,0
08.12.2019 10:00:00 4,3 4,3 4 2 SSE 1029,3 0,8 -
08.12.2019 09:00:00 4,4 4,4 2 1 SSE 1028,9 0,3 0,0
08.12.2019 08:00:00 4,5 4,5 2 1 SE 1028,4 0,4 0,0
08.12.2019 07:00:00 4,5 4,5 4 2 WSW 1028,1 0,3 -
08.12.2019 06:00:00 4,9 4,8 4 2 WNW 1027,6 0,4 0,0
08.12.2019 05:00:00 5,1 5,0 4 2 SW 1027,7 0,4 0,0
08.12.2019 04:00:00 5,3 5,2 4 2 SE 1027,7 0,4 -
08.12.2019 03:00:00 5,6 5,5 4 2 ESE 1028,1 0,3 0,0
08.12.2019 02:00:00 5,9 5,8 4 2 SE 1028,0 0,3 0,0
08.12.2019 01:00:00 6,2 6,1 4 2 SE 1028,1 0,3 -
08.12.2019 00:00:00 6,2 6,1 5 3 NW 1028,4 0,3 0,0
07.12.2019 23:00:00 6,4 6,1 4 2 S 1028,1 0,4 0,0
07.12.2019 22:00:00 6,5 6,2 2 1 ESE 1027,5 1,5 -
07.12.2019 21:00:00 6,6 6,0 4 2 SSW 1027,4 4,3 0,0
07.12.2019 20:00:00 6,8 6,2 5 3 S 1027,1 - 0,0
07.12.2019 19:00:00 7,0 6,1 5 3 SE 1026,5 7 -
07.12.2019 18:00:00 7,4 6,2 5 3 SSE 1026,1 9 0,0
07.12.2019 17:00:00 8,3 6,3 5 3 SE 1025,5 13 0,0
07.12.2019 16:00:00 8,7 6,7 2 1 SSW 1025,0 15 -
07.12.2019 15:00:00 8,6 6,6 4 2 NNE 1024,8 14 0,0
07.12.2019 14:00:00 8,6 6,7 8 4 ESE 1025,2 16 0,0
07.12.2019 13:00:00 8,2 7,0 8 4 E 1025,9 17 -
07.12.2019 12:00:00 7,5 7,2 4 2 E 1026,8 11 0,0
07.12.2019 11:00:00 6,8 6,8 4 2 E 1027,0 - 0,0
07.12.2019 10:00:00 6,3 6,3 2 1 SSE 1026,4 4,5 -
07.12.2019 09:00:00 6,1 6,1 5 3 ENE 1026,1 7 0,0
07.12.2019 08:00:00 5,9 5,9 8 4 ENE 1025,8 0,5 0,0
07.12.2019 07:00:00 5,4 5,4 9 5 ENE 1025,7 0,5 -
07.12.2019 06:00:00 4,7 4,7 5 3 ENE 1025,7 0,3 0,0
07.12.2019 05:00:00 3,8 3,7 4 2 E 1025,8 6 0,0
07.12.2019 04:00:00 4,2 3,9 5 3 E 1025,6 4,7 -
07.12.2019 03:00:00 4,4 4,1 2 1 NNE 1025,5 6 0,0
07.12.2019 02:00:00 5,1 4,8 4 2 ENE 1025,0 6 0,0
07.12.2019 01:00:00 5,3 5,0 5 3 NNE 1025,3 7 -
07.12.2019 00:00:00 5,9 5,2 4 2 ENE 1024,9 8 0,0
06.12.2019 23:00:00 6,7 6,0 8 4 ENE 1024,3 16 0,0
06.12.2019 22:00:00 7,2 6,1 5 3 NE 1024,0 20 -
06.12.2019 21:00:00 7,8 6,4 8 4 NE 1023,6 20 0,0
06.12.2019 20:00:00 8,8 6,9 8 4 N 1023,0 20 0,0
06.12.2019 19:00:00 9,1 7,0 8 4 NNE 1022,6 20 -
06.12.2019 18:00:00 10,5 7,7 8 4 NE 1021,8 20 0,0
06.12.2019 17:00:00 11,6 7,9 11 6 ENE 1021,3 20 0,0
06.12.2019 16:00:00 12,4 8,1 15 8 ENE 1020,9 20 -
06.12.2019 15:00:00 12,7 8,6 13 7 ENE 1020,8 20 0,0
06.12.2019 14:00:00 11,5 8,5 8 4 NE 1021,8 20 0,0
06.12.2019 13:00:00 9,9 8,0 9 5 ENE 1022,9 20 -
06.12.2019 12:00:00 8,7 7,1 13 7 E 1023,9 19 0,0
06.12.2019 11:00:00 7,5 7,1 13 7 E 1024,5 14 0,0
06.12.2019 10:00:00 6,3 6,3 9 5 ENE 1024,5 3,7 -
06.12.2019 09:00:00 5,7 5,6 11 6 ENE 1024,2 0,6 0,0
06.12.2019 08:00:00 5,8 5,5 9 5 ENE 1023,6 8 0,0
06.12.2019 07:00:00 5,9 5,6 9 5 ENE 1022,9 9 -
06.12.2019 06:00:00 6,2 5,9 5 3 ENE 1022,3 7 0,0
06.12.2019 05:00:00 6,7 6,4 9 5 ENE 1022,0 7 0,0
06.12.2019 04:00:00 6,8 6,5 13 7 ENE 1021,9 9 -
06.12.2019 03:00:00 6,7 6,4 11 6 ENE 1021,7 12 0,0
06.12.2019 02:00:00 6,6 6,3 11 6 ENE 1021,6 12 0,0
06.12.2019 01:00:00 6,6 6,3 8 4 ENE 1022,1 10 -
06.12.2019 00:00:00 6,8 6,4 9 5 ENE 1021,8 14 0,0
05.12.2019 23:00:00 7,5 6,8 11 6 ENE 1021,1 20 0,0
05.12.2019 22:00:00 8,1 7,2 11 6 ENE 1020,7 20 -
05.12.2019 21:00:00 8,4 7,2 11 6 ENE 1020,3 20 0,0
05.12.2019 20:00:00 8,5 7,3 13 7 ENE 1019,7 20 0,0
05.12.2019 19:00:00 8,8 7,1 8 4 ENE 1018,8 20 -
05.12.2019 18:00:00 10,0 7,6 11 6 ENE 1017,8 20 0,0
05.12.2019 17:00:00 11,2 7,9 13 7 ENE 1017,0 20 0,0
05.12.2019 16:00:00 11,4 7,3 16 9 ENE 1016,4 20 -
05.12.2019 15:00:00 11,8 7,5 18 10 ENE 1016,0 20 0,0
05.12.2019 14:00:00 11,5 7,4 18 10 NE 1016,3 20 0,0
05.12.2019 13:00:00 10,5 6,3 16 9 ENE 1017,3 20 -
05.12.2019 12:00:00 11,3 6,2 21 11 NE 1016,9 20 0,0
05.12.2019 11:00:00 9,7 6,6 9 5 NE 1017,0 20 0,0
05.12.2019 10:00:00 7,8 6,4 8 4 NNE 1016,7 20 -
05.12.2019 09:00:00 6,2 5,3 4 2 NE 1016,5 20 0,0

tt = temperature
td = dewpoint
ff = wind speed
dd = wind direction
ppp = reduced air pressure
vv = visibility
rr = precipitation

Next stations